Regional Weather Roundup
Issued by NWS Upton, NY

Current Version | Previous Version | Graphics & Text | Print | Product List | Glossary Off
Versions: 1 2 3 4 5 6 7 8 9 10 11 12 13 14 15 16 17 18 19 20 21 22 23 24 25 26 27 28 29 30 31 32 33 34 35 36 37 38 39 40 41 42 43 44 45 46 47 48 49 50

000
ASUS41 KOKX 260707
RWROKX

REGIONAL WEATHER ROUNDUP
NATIONAL WEATHER SERVICE NEW YORK NY
300 AM EDT THU MAR 26 2015

NOTE: "FAIR" INDICATES FEW OR NO CLOUDS BELOW 12,000 FEET WITH NO
SIGNIFICANT WEATHER AND/OR OBSTRUCTIONS TO VISIBILITY.

NYZ071-072-176-178-NJZ106-104-260800-
NEW YORK CITY METRO AREA


CITY           SKY/WX    TMP DP  RH WIND       PRES   REMARKS
CENTRAL PARK   CLOUDY    42  39  89 CALM      30.09F FOG
LAGUARDIA APRT CLOUDY    38  36  92 NE3       30.07F FOG
KENNEDY INTL   CLOUDY    43  41  93 S3        30.08F
NEWARK/LIBERTY CLOUDY    42  39  89 CALM      30.07F
BRNX BOT. GARD   N/A     39  39 100 CALM      30.07F
TETERBORO      CLOUDY    41  38  89 CALM      30.06F FOG
$$

NYZ177-179-078>081-260800-
LONG ISLAND NEW YORK

CITY           SKY/WX    TMP DP  RH WIND       PRES   REMARKS
FARMINGDALE    CLOUDY    43  42  97 CALM      30.07F FOG
ISLIP          FOG       44  43  96 CALM      30.05F VSB 3/4
SHIRLEY        LGT RAIN  45  44  97 S3        30.08F FOG
WESTHAMPTON    LGT RAIN  45  43  93 SW3       30.08F FOG
MONTAUK POINT    N/A     45  43  93 S9        30.08F
$$

NYZ052-065-067-260800-
HUDSON VALLEY

CITY           SKY/WX    TMP DP  RH WIND       PRES   REMARKS
WHITE PLAINS   FOG       38  37  97 CALM      30.04F VSB 3/4
NEWBURGH       FOG       36  36 100 CALM      30.05F VSB 1
MONTGOMERY     FOG       35  34  96 CALM      30.03F VSB 1/2
POUGHKEEPSIE   FOG       36  34  92 CALM      30.05F VSB 3/4
ALBANY         CLOUDY    38  34  85 S12       30.01F WCI  30
$$

NJZ001-105-106-008-010-013-015-019>022-104-260800-
NEW JERSEY

CITY           SKY/WX    TMP DP  RH WIND       PRES   REMARKS
NEWARK/LIBERTY CLOUDY    42  39  89 CALM      30.07F
TETERBORO      CLOUDY    41  38  89 CALM      30.06F FOG
CALDWELL       CLOUDY    39  36  89 CALM      30.06F FOG
MORRISTOWN     CLOUDY    41  37  87 CALM      30.05F FOG
SOMERVILLE     CLOUDY    40  37  89 CALM      30.05F FOG
SUSSEX         CLOUDY    37  34  89 CALM      30.04F FOG
ANDOVER          N/A     37  35  92 CALM      30.04F
TRENTON        CLOUDY    40  37  89 N3        30.07F FOG
MILLVILLE      CLOUDY    45  43  93 CALM      30.08F
ATLANTIC CITY  FOG       47  46  97 CALM      30.07F VSB 1/4
WRIGHTSTOWN    CLOUDY    40  40  99 NW2       30.05F
TOMS RIVER     CLOUDY    43  41  93 CALM      30.07F
BELMAR         CLOUDY    43  37  81 CALM      30.06F
$$

PAZ047>061-062-071-260800-
EASTERN PENNSYLVANIA

CITY           SKY/WX    TMP DP  RH WIND       PRES   REMARKS
PHILADELPHIA   MOCLDY    41  39  93 E5        30.08F FOG
ALLENTOWN      FAIR      36  33  89 CALM      30.06F
SCRANTON       FAIR      36  33  89 CALM      30.01F FOG
$$

CTZ002-004>006-009-010-012-RIZ004-006-007-MAZ004-011-015-260800-
SOUTHERN NEW ENGLAND
 IN CT

CITY           SKY/WX    TMP DP  RH WIND       PRES   REMARKS
BRADLEY INTL   CLOUDY    38  35  89 S5        30.05F FOG     WCI  34
HARTFORD       FOG       36  35  96 CALM      30.06F VSB 3/4
DANBURY        FOG       35  32  88 SE3       30.05F VSB 3/4
WTRBRY/OXFORD  CLOUDY    36  30  80 CALM      30.05F VSB 1/4
BRIDGEPORT     CLOUDY    38  38 100 CALM      30.07F FOG
MERIDEN        FOG       36  34  92 CALM      30.06F VSB 1/2
NEW HAVEN      CLOUDY    38  38 100 CALM      30.06F FOG
CHESTER        FOG       39  39 100 CALM      30.07F VSB 1/4
GROTON         LGT RAIN  40  39  97 CALM      30.07F FOG
WILLIMANTIC    FOG       35  34  96 CALM      30.07F VSB 1/2

 IN RI

CITY           SKY/WX    TMP DP  RH WIND       PRES   REMARKS
PROVIDENCE     CLOUDY    43  41  93 S8        30.07F FOG
BLOCK ISLAND   CLOUDY    45  39  81 SW14      30.06F
WESTERLY       LGT RAIN  42  41  96 CALM      30.08F FOG

 IN MA

CITY           SKY/WX    TMP DP  RH WIND       PRES   REMARKS
BOSTON         CLOUDY    40  39  97 S10       30.05F WCI  33
WORCESTER      FOG       38  37  97 SW16      30.01F VSB 3/4 WCI  29
WESTFIELD      CLOUDY    37  35  92 S6        30.03F WCI  32
PROVINCETOWN     N/A    N/A N/A N/A MISG        N/A
NANTUCKET      CLOUDY    42  38  85 S17G24    30.10F
$$

ANZ330-335-338-340-345-350-353-355-260800-
COASTAL MARINE OBSERVATIONS


STATION/POSITION TIME  SKY/WX   TEMP    WIND        PRES    VSBY  WAVE
                                AIR SEA DIR/SP/G                  HT/PER
                 (UTC)          (F)     (DEG/KT/KT) (MB)    (MI)  (FT/S)
NY HARB ENTRANCE 0650            39 38  360/  2/  2 1018.5          2/ 5
4S FIRE IS       0603               37                N/A           2/ 4
20S FIRE ISLAND  0550               38              1019.5          3/ 5
23SW MTP         0650                                 N/A           4/ 5
HUDSON CANYON    NOT AVBL
EXECUTION ROCKS  NOT AVBL
WESTERN LI SOUND NOT AVBL
CENTRAL LI SOUND NOT AVBL
EASTERN LI SOUND NOT AVBL
ROBBINS REEF     0600            40     290/  3/  4 1018.2
$$


>>>>>>>>>>>>>>>>>>>>>>>>>>>> KEY <<<<<<<<<<<<<<<<<<<<<<<<<<<
>                                                          <
>     SKY/WX - SKY CONDITION/PRESENT WEATHER               <
>     TMP    - TEMPERATURE IN FAHRENHEIT                   <
>     DP     - DEWPOINT IN FAHRENHEIT                      <
>     RH     - RELATIVE HUMIDITY IN PERCENT                <
>     WIND   - DIRECTION AND SPEED IN MPH                  <
>     PRES   - MEAN SEA LEVEL PRESSURE IN INCHES OF HG     <
>     WCI    - WIND CHILL INDEX                            <
>     VSB    - VISIBILITY IN MILES                         <
>     HX     - HEAT INDEX                                  <
>     TC     - TEMPERATURE IN CELSIUS                      <
>     VRB    - VARIABLE WIND DIRECTION                     <
>                                                          <
>>>>>>>>>>>>>>>>>>>>>>>>>>>> KEY <<<<<<<<<<<<<<<<<<<<<<<<<<<





USA.gov is the U.S. government's official web portal to all federal, state and local government web resources and services.